Location: St. Louis
(38.6270°N, 90.1994°W)
Time: 15:40:29
(UTC-05:00)

ISS - Pass Details

Date: 10 February 2014
Orbit: 402 x 404 km, 51.6° (Epoch: 28 May)

Event Time Altitude Azimuth Distance (km) Brightness Sun altitude
Rises 18:35:06 0° 256° (WSW) 2,350 2.6 -12.6°
Reaches altitude 10° 18:37:22 10° 269° (W) 1,492 1.0 -13.1°
Maximum altitude 18:40:19 28° 331° (NNW) 819 -1.6 -13.6°
Enters shadow 18:42:47 13° 27° (NNE) 1,330 -1.0 -14.1°
